Date String (YYYY-MM-DD hh:mm:ss) UTC,Instrument flags,Ambient pressure (hPa),Sample flow (lpm),Bypass flow (lpm),Sample temperature (°C),Ambient temperature (°C),ASC tube jacket temperature (°C),LED temperature (°C),Box temperature (°C),Sample RH (%),Span deviation,Mass concentration (μg/m³),Mass concentration (μg/m³),Mass concentration (μg/m³)
DateTimeUTC,F1_M11,P_M11,Q1_M11,Q2_M11,T1_M11,T2_M11,T3_M11,T4_M11,T5_M11,U1_M11,ZSPAN_M11,X0_M11,X2_M11,X1_M11
2021-09-25 16:00:00,,0830.3,5.01,0.00,29.9,26.9,00.0,39.2,31.4,17.3,0001.6,0022.01,0008.19,0006.41
2021-09-25 16:01:00,,0830.4,5.01,0.00,29.9,27.3,00.0,39.1,31.4,16.8,0001.9,0021.92,0008.22,0006.43
2021-09-25 16:02:00,,0830.4,4.99,0.00,29.9,27.7,00.0,39.1,31.5,16.5,0002.0,0021.60,0008.10,0006.42
2021-09-25 16:03:00,,0830.4,4.99,0.00,29.9,28.0,00.0,39.1,31.5,16.2,0002.2,0021.32,0008.08,0006.44
2021-09-25 16:04:00,,0830.4,5.00,0.00,29.9,28.3,00.0,39.1,31.6,17.7,0002.4,0020.87,0008.09,0006.44
2021-09-25 16:05:00,,0830.4,5.00,0.00,29.9,28.5,00.0,39.1,31.7,17.3,0002.4,0021.39,0008.04,0006.44
2021-09-25 16:06:00,,0830.3,5.00,0.00,30.0,28.6,00.0,39.1,31.7,17.1,0002.5,0021.67,0007.96,0006.42
2021-09-25 16:07:00,,0830.3,5.00,0.00,30.0,28.8,00.0,39.1,31.7,17.1,0002.4,0020.81,0007.94,0006.43
2021-09-25 16:08:00,,0830.4,5.00,0.00,30.0,28.9,00.0,39.1,31.7,17.2,0002.6,0020.27,0007.85,0006.43
2021-09-25 16:09:00,,0830.3,5.00,0.00,30.0,29.0,00.0,39.1,31.8,16.9,0002.7,0020.29,0007.78,0006.43
2021-09-25 16:10:00,,0830.4,5.00,0.00,30.1,29.1,00.0,39.1,31.9,16.5,0002.1,0019.18,0007.67,0006.42
2021-09-25 16:11:00,,0830.3,4.98,0.00,30.1,29.1,00.0,39.1,31.9,16.2,0001.9,0018.64,0007.65,0006.41
2021-09-25 16:12:00,,0830.5,5.00,0.00,30.1,29.2,00.0,39.1,32.0,15.6,0001.4,0017.73,0007.63,0006.39
2021-09-25 16:13:00,,0830.4,5.00,0.00,30.2,29.3,00.0,39.2,32.0,13.7,0001.6,0016.67,0007.60,0006.38
2021-09-25 16:14:00,,0830.3,5.02,0.00,30.2,29.2,00.0,39.2,32.0,15.4,0001.9,0016.69,0007.57,0006.40
2021-09-25 16:15:00,,0830.3,4.99,0.00,30.2,27.7,00.0,39.2,31.6,16.7,0002.0,0018.06,0007.51,0006.39
2021-09-25 16:16:00,,0830.4,4.99,0.00,30.0,26.4,00.0,39.1,31.3,17.0,0002.2,0017.85,0007.55,0006.39
2021-09-25 16:17:00,,0830.4,5.00,0.00,29.9,26.6,00.0,39.1,31.3,16.6,0002.4,0017.70,0007.62,0006.40
2021-09-25 16:18:00,,0830.4,4.99,0.00,29.8,27.1,00.0,39.1,31.3,16.2,0002.7,0018.19,0007.60,0006.40
2021-09-25 16:19:00,,0830.4,5.00,0.00,29.8,27.5,00.0,39.0,31.4,15.5,0002.6,0018.68,0007.62,0006.40
2021-09-25 16:20:00,,0830.4,5.01,0.00,29.8,27.8,00.0,39.0,31.5,15.2,0002.6,0017.79,0007.60,0006.42
2021-09-25 16:21:00,,0830.4,4.99,0.00,29.8,28.1,00.0,39.0,31.5,14.9,0002.9,0017.78,0007.67,0006.44
2021-09-25 16:22:00,,0830.4,5.00,0.00,29.9,28.3,00.0,39.0,31.6,15.3,0002.8,0017.60,0007.69,0006.47
2021-09-25 16:23:00,,0830.4,5.01,0.00,29.9,28.5,00.0,39.0,31.7,15.6,0002.6,0017.94,0007.72,0006.49
2021-09-25 16:24:00,,0830.4,5.00,0.00,29.9,28.7,00.0,39.0,31.7,15.3,0002.0,0018.21,0007.79,0006.50
2021-09-25 16:25:00,,0830.3,5.00,0.00,30.0,28.8,00.0,39.0,31.7,15.7,0001.8,0017.80,0007.83,0006.50
2021-09-25 16:26:00,,0830.3,5.01,0.00,30.0,28.9,00.0,39.0,31.8,16.2,0002.4,0016.93,0007.89,0006.51
2021-09-25 16:27:00,,0830.3,4.99,0.00,30.0,29.0,00.0,39.0,31.9,16.0,0002.5,0016.68,0007.83,0006.53
2021-09-25 16:28:00,,0830.3,5.02,0.00,30.1,29.1,00.0,39.0,31.9,16.5,0002.3,0016.37,0007.80,0006.55
2021-09-25 16:29:00,,0830.2,5.01,0.00,30.1,29.2,00.0,39.1,31.9,16.1,0002.1,0015.41,0007.80,0006.56
2021-09-25 16:30:00,,0830.2,4.99,0.00,30.1,29.2,00.0,39.1,32.0,16.1,0001.9,0015.47,0007.79,0006.55
2021-09-25 16:31:00,,0830.2,5.00,0.00,30.1,28.6,00.0,39.1,31.8,15.9,0001.9,0015.14,0007.73,0006.54
2021-09-25 16:32:00,,0830.2,4.99,0.00,30.0,26.7,00.0,39.1,31.3,16.0,0002.2,0014.80,0007.68,0006.54
2021-09-25 16:33:00,,0830.2,5.01,0.00,29.9,26.4,00.0,39.1,31.2,16.0,0002.6,0015.07,0007.67,0006.54
2021-09-25 16:34:00,,0830.2,5.01,0.00,29.8,26.8,00.0,39.0,31.3,15.9,0003.2,0014.69,0007.59,0006.53
2021-09-25 16:35:00,,0830.2,5.00,0.00,29.8,27.2,00.0,39.0,31.3,15.9,0003.6,0014.49,0007.54,0006.53
2021-09-25 16:36:00,,0830.2,4.99,0.00,29.8,27.6,00.0,38.9,31.4,15.8,0003.8,0014.77,0007.54,0006.54
2021-09-25 16:37:00,,0830.2,5.00,0.00,29.8,27.9,00.0,38.9,31.5,15.9,0003.5,0014.17,0007.51,0006.54
2021-09-25 16:38:00,,0830.3,5.00,0.00,29.8,28.2,00.0,38.9,31.5,15.9,0003.1,0014.87,0007.53,0006.53
2021-09-25 16:39:00,,0830.2,4.99,0.00,29.8,28.4,00.0,38.9,31.6,15.7,0002.7,0014.63,0007.50,0006.53
2021-09-25 16:40:00,,0830.2,5.02,0.00,29.9,28.6,00.0,38.9,31.7,15.4,0003.3,0014.76,0007.57,0006.54
2021-09-25 16:41:00,,0830.3,4.99,0.00,29.9,28.8,00.0,38.9,31.7,15.3,0003.6,0014.03,0007.60,0006.57
2021-09-25 16:42:00,,0830.2,5.00,0.00,30.0,28.9,00.0,38.9,31.8,14.9,0003.4,0014.91,0007.65,0006.60
2021-09-25 16:43:00,,0830.2,5.00,0.00,30.0,29.0,00.0,39.0,31.8,14.5,0003.3,0016.19,0007.67,0006.61
2021-09-25 16:44:00,,0830.3,4.99,0.00,30.0,29.1,00.0,39.0,31.9,14.6,0003.2,0016.48,0007.73,0006.63
2021-09-25 16:45:00,,0830.2,5.00,0.00,30.1,29.0,00.0,39.0,31.9,14.7,0002.6,0017.24,0007.78,0006.65
2021-09-25 16:46:00,,0830.1,5.02,0.00,30.0,27.3,00.0,39.0,31.5,14.8,0002.3,0017.16,0007.79,0006.66
2021-09-25 16:47:00,,0830.1,5.00,0.00,29.8,26.2,00.0,39.0,31.1,15.3,0001.7,0017.51,0007.79,0006.66
2021-09-25 16:48:00,,0830.1,5.00,0.00,29.8,26.6,00.0,39.0,31.2,15.8,0001.8,0019.16,0007.82,0006.68
2021-09-25 16:49:00,,0830.1,5.01,0.00,29.7,27.0,00.0,38.9,31.3,15.6,0002.2,0019.36,0007.85,0006.72
2021-09-25 16:50:00,,0830.2,4.99,0.00,29.7,27.4,00.0,38.9,31.4,15.8,0002.1,0020.08,0007.85,0006.72
2021-09-25 16:51:00,,0830.1,5.00,0.00,29.7,27.8,00.0,38.9,31.4,15.9,0001.4,0020.68,0007.88,0006.74
2021-09-25 16:52:00,,0830.2,5.00,0.00,29.7,28.1,00.0,38.8,31.5,15.8,0001.5,0021.23,0007.92,0006.75
2021-09-25 16:53:00,,0830.1,5.01,0.00,29.8,28.3,00.0,38.8,31.6,15.8,0001.7,0020.84,0007.95,0006.76
2021-09-25 16:54:00,,0830.1,4.99,0.00,29.8,28.5,00.0,38.8,31.6,15.8,0001.9,0020.99,0008.02,0006.79
2021-09-25 16:55:00,,0830.1,5.00,0.00,29.8,28.7,00.0,38.9,31.7,15.3,0002.1,0020.62,0008.02,0006.82
2021-09-25 16:56:00,,0830.1,5.00,0.00,29.9,28.8,00.0,38.9,31.7,15.0,0002.7,0020.44,0008.06,0006.87
2021-09-25 16:57:00,,0830.2,5.00,0.00,29.9,28.9,00.0,38.9,31.8,15.4,0003.2,0020.61,0008.10,0006.90
2021-09-25 16:58:00,,0830.1,5.01,0.00,30.0,29.0,00.0,38.9,31.8,14.7,0003.6,0020.51,0008.09,0006.94
2021-09-25 16:59:00,,0830.1,4.99,0.00,30.0,28.8,00.0,38.9,31.8,14.7,0003.6,0019.04,0008.10,0006.96
